Weather in Kotovka

Russia / Kursk Oblast     51°46′34″N   38°10′12″E
temp.,
°C
wind,
m/s
gust,
m/s
humid.,
%
clouds,
%
prec.,
mm/h
press.,
hPa
HPBL,
m
3 march, wed
wed300:000nnw61097100 0.3 1012619
03:00−1nnw7139296 0.4 1014695
06:00−1nnw71289100 0.0 1015786
09:00−2nnw7119096 0.1 1017874
12:00−2nnw7108498 0.1 1019832
15:00−1nw698179 0.1 1020808
18:00−3w410880 0.0 1020284
21:00−3w613910 0.0 1020385
4 march, thu
thu400:00−1w7129167 0.0 1018767
03:00−1w7128983 0.1 1017699
06:00−2wsw7149095 0.0 1014410
09:00−1wsw8148762 0.0 1013451
12:00+1wsw815790 0.0 1010665
15:00+3wsw816740 0.0 1008736
18:00+2wsw6168318 0.0 1005582
21:00+2wsw6159359 0.0 1004587
5 march, fri
fri500:00+2wsw71496100 0.1 1003550
03:00+2w61397100 0.3 1003503
06:00+1w71293100 0.1 1004632
09:00−1wnw5991100 0.6 1006546
12:000nw458490 0.1 1009605
15:00−1n348494 0.1 1011428
18:00−1nne3483100 0.1 1011503
21:00−2nne3584100 0.1 1012403
6 march, sat
sat600:00−2nne4684100 0.0 1013483
03:00−3n3586100 0.0 1015340
06:00−5n3488100 0.0 1016257
09:00−5nnw347975 0.0 1016238
12:00−3nw336514 0.0 1017584
15:00−2nw236020 0.0 1016854
18:00−3w578163 0.1 1017699
21:00−4wnw467247 0.2 1019525
7 march, sun
sun700:00−6nnw7108454 0.4 1020624
03:00−8nw487459 0.4 1021498
06:00−7wsw59710 0.0 1019581
09:00−5wsw8136217 0.0 1018775
12:00−3wsw101653100 0.0 10141122
15:00−1wsw111854100 0.0 10111429
18:00−1wsw111961100 0.0 10071380
21:00−1wsw101965100 0.0 10061163